This is the latest recevied weather packets stored in our database for station/object KF0TNT. If no packets are shown the sender has not sent any weather packets the latest 10 day(s).
| Time | Temp. | Humidity | Pressure | Rain* | Wind** | Luminosity | Snow |
|---|---|---|---|---|---|---|---|
| 1777556167 | 0.56° C | 96% | 1021.8 hPa | 0 mm | - | 23 W/m² | - |
| 1777555863 | 0.56° C | 95% | 1021.7 hPa | 0 mm | - | 21 W/m² | - |
| 1777555558 | 0.56° C | 95% | 1021.7 hPa | 0 mm | - | 22 W/m² | - |
| 1777555255 | 0.56° C | 95% | 1021.7 hPa | 0 mm | - | 24 W/m² | - |
| 1777554952 | 0.56° C | 94% | 1021.7 hPa | 0 mm | - | 23 W/m² | - |
| 1777554649 | 0.56° C | 94% | 1021.6 hPa | 0 mm | - | 22 W/m² | - |
| 1777554346 | 0.56° C | 95% | 1021.3 hPa | 0 mm | - | 21 W/m² | - |
| 1777554043 | 0.56° C | 95% | 1021.5 hPa | 0 mm | - | 15 W/m² | - |
| 1777553739 | 0.56° C | 95% | 1021.6 hPa | 0 mm | - | 11 W/m² | - |
| 1777553436 | 0.56° C | 96% | 1021.6 hPa | 0 mm | - | 8 W/m² | - |
| 1777553132 | 0° C | 97% | 1021.5 hPa | 0 mm | - | 5 W/m² | - |
| 1777552832 | 0° C | 97% | 1021.2 hPa | 0 mm | - | 5 W/m² | - |
| 1777552528 | 0° C | 97% | 1021.1 hPa | 0 mm | - | 4 W/m² | - |
| 1777552224 | 0.56° C | 97% | 1021.3 hPa | 0 mm | - | 3 W/m² | - |
| 1777551921 | 0.56° C | 97% | 1021.5 hPa | 0 mm | - | 2 W/m² | - |
| 1777551619 | 0.56° C | 97% | 1021.1 hPa | 0 mm | - | 2 W/m² | - |
| 1777551316 | 0.56° C | 97% | 1021.2 hPa | 0 mm | - | 1 W/m² | - |
| 1777551012 | 0.56° C | 97% | 1021.2 hPa | 0 mm | - | 1 W/m² | - |
| 1777550709 | 0.56° C | 97% | 1021.2 hPa | 0 mm | - | 1 W/m² | - |
| 1777550406 | 0.56° C | 97% | 1021.3 hPa | 0 mm | - | 0 W/m² | - |
| 1777550102 | 0.56° C | 97% | 1021.1 hPa | 0 mm | - | 0 W/m² | - |
| 1777549798 | 0.56° C | 97% | 1021.2 hPa | 0 mm | - | 0 W/m² | - |
| 1777549494 | 0.56° C | 97% | 1021.1 hPa | 0 mm | - | 0 W/m² | - |
| 1777549190 | 0.56° C | 97% | 1021.2 hPa | 0 mm | - | 0 W/m² | - |
| 1777548887 | 0.56° C | 97% | 1021.1 hPa | 0 mm | - | 0 W/m² | - |
* Rain latest hour (hover to see other rain measurements)
** Current wind speed in m/s (hover to see current wind gust speed)